Home > Weather > Jalalabad > Past weeks

Flag for Afghanistan Past Weather in Jalalabad, Afghanistan — Yesterday and Last 2 Weeks

Now
102 °F

Haze.


Feels Like: 114 °F
Forecast: 79 / 108 °F
Wind: 14 mph from Northeast

Location: Peshawar Airport

Current Time: Jul 23, 2016 at 3:46:18 PM

Latest Report: Jul 23, 2016 at 3:00 PM


Visibility: 2 mi

Pressure: 29.50 "Hg (27.71 "Hg at 572m altitude)

Humidity: 40%

Dew Point: 73 °F

Location of JalalabadLocation

Past Weather in Jalalabad — Graph

°F

Jalalabad Temperature Yesterday

Maximum temperature yesterday: 99 °F (at 1:30 PM)
Minimum temperature yesterday: 84 °F (at 4:29 AM)
Average temperature yesterday: 92 °F

High & Low Weather Summary for the Past Weeks

 TemperatureHumidityPressure
High104 °F (Jul 8, 3:00 PM)78% (Jul 17, 4:30 AM)29.65 "Hg (Jul 17, 4:30 AM)
Low75 °F (Jul 17, 4:30 AM)33% (Jul 20, 1:30 PM)29.50 "Hg (Jul 23, 2:30 PM)
Average91 °F53%29.56 "Hg
* Reported Jul 8 3:00 PM — Jul 23 2:30 PM, Jalalabad, Weather by CustomWeather, © 2016

Note: Actual official high and low records may vary slightly from our data, if they occured in-between our weather recording intervals... More about our weather records

Advertising

Jalalabad Weather History for the Previous 24 Hours

Scroll right to see more
 ConditionsComfort  
Time TempWeatherWind HumidityBarometerVisibility
2:30 PM
Sat, Jul 23
102 °FHaze.14 mph40%29.50 "Hg2 mi
2:00 PM100 °FHaze.12 mph42%29.53 "Hg2 mi
1:30 PM100 °FHaze.12 mph42%29.53 "Hg2 mi
1:00 PM97 °FHaze.12 mph44%29.56 "Hg2 mi
12:30 PM97 °FHaze.12 mph44%29.56 "Hg2 mi
12:00 PM91 °FHaze.7 mph49%29.56 "Hg2 mi
11:30 AM91 °FHaze.7 mph49%29.56 "Hg2 mi
11:00 AM91 °FHaze.7 mph49%29.59 "Hg2 mi
10:30 AM91 °FHaze.7 mph49%29.59 "Hg2 mi
10:00 AM88 °FHaze.9 mph55%29.59 "Hg2 mi
9:30 AM88 °FHaze.9 mph55%29.59 "Hg2 mi
9:00 AM86 °FHaze.9 mph55%29.59 "Hg2 mi
8:30 AM86 °FHaze.9 mph55%29.59 "Hg2 mi
8:00 AM84 °FHaze.7 mph58%29.59 "Hg2 mi
7:30 AM84 °FHaze.7 mph58%29.59 "Hg2 mi
6:30 AM82 °FHaze.7 mph62%29.59 "Hg2 mi
5:30 AM82 °FScattered clouds.7 mph62%29.59 "Hg2 mi
4:30 AM82 °FPassing clouds.7 mph55%29.59 "Hg2 mi
3:30 AM84 °FThundershowers. Passing clouds.9 mph58%29.56 "Hg2 mi
2:30 AM86 °FHaze.9 mph55%29.53 "Hg2 mi
1:30 AM86 °FHaze.9 mph55%29.53 "Hg2 mi
12:30 AM86 °FThundershowers. Passing clouds.12 mph55%29.53 "Hg2 mi
11:30 PM
Fri, Jul 22
88 °FThundershowers. Passing clouds.12 mph55%29.53 "Hg2 mi
9:30 PM90 °FHaze.18 mph52%N/A2 mi
8:30 PM91 °FHaze.18 mph49%N/A2 mi
7:30 PM93 °FHaze.18 mph49%N/A2 mi
6:30 PM95 °FHaze.18 mph47%N/A2 mi
6:00 PM97 °FHaze.18 mph44%N/A2 mi
5:30 PM97 °FHaze.18 mph44%N/A2 mi
4:30 PM97 °FHaze.21 mph44%N/A2 mi
4:00 PM99 °FHaze.23 mph39%N/A2 mi
3:30 PM99 °FHaze.23 mph39%N/A2 mi
Weather by CustomWeather, © 2016

See weather overviewHow to use our weather pages